RH
84 63 48 54 70 49 33 50 58 59 88 84 97 100 100 100 100 100 100 99 75 78 59 40 44 34 35 50 77 75 64 64 68 49 22 27 37 68 96 100 100 95 34 58 77 82 79 99 100 95 95 100 100 100
100 80 47 54 49 49 24 32 51 63 100 93 94 100 100 100 100 100 100 96 100 100 53 41 38 40 45 54 75 67 62 78 71 56 29 26 37 58 77 91 100 99 79 32 60 68 70 87 100 83 84 90 96 100
97 100 74 90 57 77 43 20 41 68 90 79 99 100 100 100 100 100 100 100 97 100 99 70 58 39 39 53 78 72 70 86 78 52 44 30 44 57 71 80 86 100 100 86 37 64 61 68 93 94 96 95 90 100
82 94 94 100 82 69 49 22 18 49 89 78 100 100 100 100 100 100 100 96 100 100 100 84 47 41 49 68 89 83 75 92 89 67 45 46 47 48 54 67 78 92 100 100 63 36 63 64 66 85 94 94 99 100
64 66 96 81 56 58 58 28 21 28 43 96 100 100 100 100 100 100 100 100 100 100 92 84 79 55 58 69 90 100 88 95 95 92 46 49 53 52 53 70 72 87 97 100 100 78 36 47 56 60 62 64 72 84
63 55 71 90 62 44 42 27 22 21 52 100 96 100 100 100 100 100 100 100 100 100 93 96 84 71 54 63 77 94 100 98 99 97 64 44 47 59 63 83 85 73 91 100 100 99 76 41 38 47 48 54 54 55
76 71 38 57 77 44 35 35 29 32 92 100 95 95 100 100 100 100 98 89 100 100 95 95 95 73 67 88 98 100 100 100 98 98 90 42 41 50 65 100 87 68 69 86 100 100 94 81 62 39 39 43 42 41
69 58 45 32 48 61 46 28 20 25 97 100 100 100 100 100 100 100 100 100 100 100 100 99 85 78 84 91 100 100 100 98 96 96 94 43 34 37 58 93 89 83 72 68 86 96 95 98 95 78 55 38 38 37
42 47 46 35 27 36 42 33 32 47 99 100 100 100 100 100 100 100 100 100 100 100 99 80 77 94 99 96 100 100 100 100 100 96 80 45 37 37 58 86 91 85 80 75 73 86 87 90 98 99 90 87 84 79
20 22 20 32 28 14 26 34 23 44 95 100 100 100 100 90 100 100 100 100 100 100 89 89 96 87 94 100 100 100 99 100 96 89 73 50 41 34 57 93 93 84 80 78 72 76 77 84 97 100 100 95 84 76
27 33 31 35 33 19 19 27 20 64 100 100 100 100 100 98 100 100 100 100 97 86 89 90 88 96 99 93 100 99 97 94 92 89 72 52 42 28 44 84 85 76 77 81 71 75 84 82 86 87 96 98 99 98
37 35 32 28 25 20 18 17 18 64 78 92 100 100 98 100 100 100 99 100 93 83 79 84 90 90 100 100 99 100 100 98 91 81 72 58 38 43 72 99 84 80 78 84 80 81 93 94 91 97 99 97 98 100
29 27 24 24 20 16 15 16 24 61 78 92 100 100 100 100 100 100 89 73 67 63 90 100 100 100 100 100 100 100 100 92 93 86 73 68 78 95 100 86 75 79 81 81 87 91 94 94 96 100 97 98 99 98
24 23 20 17 15 12 12 18 29 83 96 100 100 100 100 100 94 89 78 70 83 100 100 100 97 93 98 100 100 100 100 94 88 70 70 86 88 78 78 75 80 84 91 94 96 100 100 100 100 98 98 98 96 94
18 18 16 15 12 11 25 47 47 79 100 100 100 100 100 99 92 98 100 100 100 100 95 95 94 95 100 100 100 97 94 89 86 94 94 87 79 78 78 85 97 97 100 100 100 100 100 100 100 100 100 100 99 99
13 14 13 13 11 13 79 69 77 96 100 100 100 100 99 92 94 100 100 100 100 100 88 90 90 95 100 98 94 96 91 99 100 100 100 99 93 88 97 99 100 100 100 100 100 100 100 99 99 100 100 100 100 100
11 11 11 11 10 11 70 98 98 100 100 100 100 95 98 97 85 85 90 100 100 98 91 90 88 97 97 97 97 100 100 100 100 100 100 100 100 100 100 100 100 100 100 100 100 100 100 100 100 100 100 100 100 100
10 10 10 10 10 9 21 91 100 100 100 100 100 93 96 84 70 77 80 95 91 88 96 100 100 99 97 100 100 100 100 100 100 100 100 100 100 100 100 100 100 100 100 100 100 100 100 100 100 100 100 100 100 100
11 10 9 9 9 8 9 60 100 100 100 100 100 86 73 74 79 81 76 86 98 98 100 98 99 91 94 98 100 100 100 100 100 100 100 100 100 100 100 100 100 100 100 100 100 100 100 100 100 100 100 100 100 100
14 12 10 8 8 8 8 17 78 90 89 96 97 99 93 82 97 95 96 100 100 100 100 100 100 89 88 99 100 100 100 100 100 100 100 100 100 99 99 100 100 98 100 100 100 100 100 100 100 100 100 100 100 100
15 14 13 10 8 8 8 8 19 78 99 92 94 100 100 100 100 100 100 100 100 100 100 100 96 88 78 79 83 90 95 97 100 100 97 96 91 84 66 62 76 89 92 92 92 93 93 94 97 99 100 100 99 99
20 16 15 14 12 10 8 7 7 11 48 94 89 84 93 99 97 94 99 100 100 100 100 98 93 94 89 82 76 75 80 80 79 79 80 80 70 58 45 36 31 30 30 34 42 54 59 64 68 68 68 66 64 62
25 22 19 16 15 14 13 11 8 7 7 11 45 78 82 71 71 90 100 100 100 100 99 97 92 89 88 85 82 79 75 72 67 61 53 44 36 31 26 23 19 15 15 15 19 26 34 38 40 45 47 52 58 64
30 23 20 18 16 16 15 15 14 12 10 8 7 7 13 36 57 69 75 74 76 84 92 95 96 93 90 86 81 73 64 57 49 46 42 40 36 32 20 20 20 18 16 19 18 17 16 20 30 35 26 17 13 10
46 46 40 33 21 19 16 15 15 15 14 12 10 9 8 7 6 6 7 8 12 19 26 33 37 41 43 44 44 46 46 43 42 38 40 33 26 24 24 23 20 16 14 12 8 9 9 10 9 8 7 5 4 5
97 100 72 69 52 32 27 19 15 13 13 14 13 12 11 10 9 8 8 7 6 6 6 6 6 6 6 6 6 7 8 9 10 10 11 12 10 10 10 7 6 5 5 5 5 6 5 5 5 5 5 5 5 5
54 50 47 55 51 43 37 32 24 18 14 12 11 12 12 11 11 10 10 10 9 8 8 8 8 7 7 7 7 7 6 6 6 6 6 6 6 6 6 6 6 6 6 6 6 6 6 6 5 5 4 4 4 4
81 87 77 58 52 47 43 37 31 27 22 18 14 12 10 10 10 10 10 10 9 9 9 8 8 8 8 8 7 7 7 7 7 7 6 6 6 6 6 6 6 6 5 5 5 4 4 4 4 4 5 6 9 14
71 68 70 76 84 86 92 84 79 71 52 38 28 21 17 14 11 11 10 9 8 8 7 7 7 6 6 6 6 6 6 5 5 5 5 5 5 4 4 4 4 4 4 5 5 6 7 10 18 29 38 40 40 43
98 100 100 100 100 100 100 100 99 97 83 68 54 44 34 24 20 17 14 12 11 10 9 9 8 8 8 7 7 7 6 6 6 6 7 7 8 7 7 8 9 10 12 12 27 48 68 72 70 65 60 58 60 60
100 100 100 100 100 100 100 100 100 100 100 100 100 96 81 56 34 27 21 19 17 16 16 15 15 15 14 14 14 14 13 12 12 13 13 15 17 18 21 35 61 83 96 97 94 98 100 97 89 82 73 67 64 60
62 64 71 75 73 70 68 63 63 77 100 100 100 100 100 98 88 83 72 53 38 29 31 33 32 37 52 53 47 48 63 69 63 76 91 98 100 100 100 100 100 100 100 100 100 100 100 100 96 85 71 57 46 41
57 54 51 48 46 47 51 52 53 54 53 51 60 94 100 99 99 100 100 99 93 90 91 90 94 99 99 99 100 100 100 100 100 100 100 100 100 100 100 100 100 100 100 100 100 100 100 99 86 74 63 52 42 35
Wind_Speed
35 32 32 28 26 22 19 27 28 21 24 36 66 42 29 37 41 46 50 54 54 53 54 51 49 45 40 38 36 34 31 29 23 21 17 16 16 17 18 18 15 13 12 11 11 8 6 4 1 8 15 12 11 15
32 39 36 32 30 23 17 25 31 25 26 34 69 48 30 33 40 43 50 51 53 54 54 53 51 47 41 40 37 35 32 28 24 22 17 16 15 15 15 17 15 11 10 10 9 6 4 4 3 9 12 10 9 11
37 39 39 38 35 34 23 22 37 34 21 44 64 43 36 34 39 38 48 48 48 50 48 47 47 46 41 40 38 37 33 30 25 23 19 17 17 15 15 15 15 13 8 9 7 5 3 5 6 8 8 7 5 11
28 34 43 39 38 35 28 19 29 39 30 37 43 45 30 40 37 37 43 53 48 47 49 49 47 45 40 38 43 40 36 33 28 26 22 19 19 16 15 16 16 13 9 10 5 2 1 2 5 8 8 8 8 17
32 34 43 46 43 38 34 27 24 38 33 29 42 35 30 28 38 35 40 48 50 47 47 47 47 42 38 37 40 44 41 37 35 28 27 23 20 17 15 18 19 15 14 12 6 5 4 4 5 6 8 8 7 6
37 29 42 51 51 48 37 29 23 33 34 33 47 56 42 26 23 28 40 45 52 49 48 45 43 42 40 39 42 43 47 42 37 32 30 27 24 20 15 18 21 15 13 9 8 8 8 7 7 8 9 10 11 11
41 36 38 52 51 50 46 39 28 37 42 40 31 41 32 32 27 24 44 41 45 45 45 45 42 41 41 39 39 40 49 47 44 38 32 31 29 25 18 15 27 21 15 11 9 9 10 11 11 11 12 13 13 13
39 38 33 44 57 54 44 37 26 31 45 40 47 43 31 27 29 24 30 39 45 44 41 40 40 39 38 37 37 40 46 47 44 37 34 34 32 28 20 25 18 20 20 16 15 13 13 12 14 15 16 16 16 15
33 36 39 39 55 61 49 40 32 33 43 37 43 43 37 36 27 27 32 36 35 38 39 38 32 30 33 36 36 35 37 40 40 38 37 38 33 28 27 25 22 20 20 20 20 18 18 16 15 16 18 20 19 18
25 28 33 40 37 43 57 45 32 39 37 36 49 43 36 44 32 30 34 38 34 32 35 35 34 33 30 31 36 36 35 37 39 40 42 40 32 31 31 28 25 24 21 21 23 23 22 20 19 18 18 18 19 19
21 26 29 28 28 36 43 49 36 41 36 35 46 33 42 43 35 33 35 34 32 31 28 29 31 34 30 29 31 39 38 38 37 41 44 39 33 33 34 32 29 26 24 22 23 22 22 21 21 20 20 20 20 21
19 20 21 24 32 36 36 38 38 41 40 38 37 35 40 40 42 45 44 35 30 27 25 21 21 26 25 23 26 30 34 37 38 39 43 39 31 32 35 36 30 28 27 24 22 21 22 22 22 21 23 22 21 22
16 18 22 25 30 35 39 41 42 42 42 42 43 37 38 47 45 48 42 37 34 28 23 18 20 20 20 23 26 25 28 29 30 35 36 28 28 33 38 34 30 29 26 24 24 23 22 23 23 22 22 22 23 22
15 19 22 25 28 33 38 42 45 41 46 50 44 39 40 43 46 39 35 34 33 27 24 18 18 23 25 24 28 33 31 31 31 28 25 24 28 32 34 31 27 25 23 22 24 24 23 23 24 25 25 25 24 22
15 18 22 27 31 34 37 39 43 43 51 48 40 36 39 39 34 33 36 35 34 31 24 21 20 21 22 27 27 29 34 36 32 24 25 26 25 26 29 27 24 23 22 20 24 26 26 26 26 27 28 28 28 28
14 17 19 23 28 32 35 39 41 43 44 46 45 39 39 41 41 40 35 34 30 24 23 23 21 23 21 24 26 27 27 25 20 20 21 20 21 23 22 22 23 22 25 25 24 26 28 29 30 29 29 30 31 32
14 16 19 22 25 29 33 37 35 43 44 50 46 43 40 37 41 41 44 44 32 28 26 26 24 25 26 24 23 24 21 19 21 22 22 20 17 16 17 19 21 24 27 28 27 28 29 30 31 31 31 31 30 30
13 15 18 20 23 26 29 31 34 40 49 45 43 43 45 48 47 40 40 38 34 34 31 28 26 31 29 29 27 25 23 23 24 24 24 22 21 20 16 15 16 18 20 23 26 28 29 29 29 30 30 30 30 30
13 14 17 20 22 24 28 27 31 36 45 48 45 44 44 46 46 44 38 37 34 34 33 32 31 30 35 30 28 27 25 24 23 22 23 24 24 24 25 24 24 22 21 20 21 21 22 23 25 27 29 30 32 33
13 13 15 17 20 23 26 29 29 34 37 44 48 46 46 46 41 39 37 40 37 33 33 32 31 29 29 28 28 26 26 26 24 23 23 23 24 25 27 29 30 30 31 31 31 30 30 30 31 32 33 35 36 37
14 15 16 18 19 22 24 27 31 32 37 40 44 48 43 41 40 40 38 38 38 39 37 36 35 37 39 37 36 33 32 31 31 30 29 29 29 29 29 30 31 32 33 34 34 35 36 36 36 37 38 39 41 43
14 16 18 19 19 20 23 25 28 31 34 38 42 45 46 47 45 43 42 45 44 41 40 40 41 42 42 42 42 41 40 38 37 37 37 36 36 35 35 34 34 35 36 37 37 38 39 39 39 39 40 41 42 44
14 16 18 21 22 22 22 23 25 28 32 34 36 39 44 48 50 51 49 44 41 40 41 41 41 41 41 43 44 44 43 42 42 41 41 40 40 40 40 39 39 38 39 40 40 40 41 42 42 43 45 46 47 49
15 14 15 19 24 25 26 27 26 27 28 30 32 35 38 41 44 46 49 50 50 51 51 51 50 49 49 48 47 46 44 44 44 44 44 44 44 44 43 43 43 43 43 43 45 45 45 45 45 48 50 51 52 53
18 15 13 13 17 20 26 30 31 31 31 30 30 31 32 34 36 37 38 41 42 44 45 46 46 46 45 45 45 44 43 43 43 44 44 44 45 46 46 46 46 48 48 48 48 48 49 49 49 50 50 51 51 52
13 12 13 12 13 14 19 24 30 33 35 35 34 33 33 33 34 34 35 36 37 38 38 39 39 40 40 41 41 42 42 42 43 43 44 45 45 45 46 46 46 46 47 47 47 47 47 48 49 50 50 51 52 52
4 4 5 7 9 10 13 16 22 27 31 34 37 37 36 35 35 34 34 34 34 35 36 37 37 38 39 39 40 41 42 43 43 44 44 45 46 46 46 46 46 46 46 47 47 48 48 48 48 47 47 47 48 48
10 10 12 11 11 11 11 12 18 22 27 31 34 36 37 37 37 37 36 36 36 36 36 36 37 39 39 39 40 40 41 42 42 43 44 44 45 45 46 46 46 47 47 47 47 45 43 41 38 37 37 37 36 36
6 4 2 2 2 2 1 4 8 12 19 25 30 34 35 37 37 36 36 36 36 36 36 36 36 37 37 37 38 38 39 39 38 38 39 39 39 39 40 40 40 39 37 34 32 30 30 29 28 26 25 24 23 23
5 5 4 2 2 2 1 1 1 3 8 12 17 21 25 29 31 32 33 34 34 34 34 34 33 33 34 33 33 32 32 31 29 29 28 29 29 29 28 27 26 25 25 25 24 22 21 20 21 22 24 26 27 27
6 6 6 6 6 6 5 3 3 4 4 5 6 10 13 16 20 23 24 25 26 27 26 25 25 25 25 25 25 24 25 24 23 24 24 24 24 23 21 20 18 18 17 17 18 19 20 21 23 25 25 26 28 30
14 13 12 12 12 11 10 9 7 6 5 5 6 5 4 8 11 12 15 17 19 19 19 19 19 19 19 19 19 19 19 18 18 18 18 18 18 18 18 18 18 18 19 20 21 21 22 23 24 25 27 28 29 30
20 19 19 19 20 20 20 19 18 16 14 12 10 9 7 5 7 11 13 15 15 14 15 17 17 17 17 17 16 15 15 15 16 16 18 19 20 21 21 20 21 22 22 22 22 22 23 24 25 26 28 31 33 34
Wind_Direction
235 237 241 250 246 264 276 234 226 240 234 231 213 193 184 196 198 206 209 214 218 222 220 221 225 227 228 233 236 237 242 257 268 271 283 299 311 335 346 350 344 351 359 5 8 15 24 34 126 178 170 167 175 168
236 236 240 246 247 249 267 238 230 224 231 218 211 191 184 193 204 208 212 216 221 220 221 223 226 226 226 230 232 231 235 247 263 258 269 283 298 316 334 352 356 349 356 10 21 34 66 60 80 150 162 165 184 182
246 230 234 234 241 241 252 243 217 216 218 209 203 185 207 212 203 206 203 213 220 219 218 218 221 225 227 229 228 230 232 240 255 248 259 268 283 300 317 329 339 358 354 356 16 30 90 104 113 121 161 185 202 179
239 241 229 228 232 230 233 240 229 216 222 220 211 212 212 217 215 214 208 214 208 208 214 217 222 225 227 228 228 229 231 236 247 246 249 259 270 281 300 311 314 336 359 3 343 342 9 161 148 141 129 117 123 160
235 241 227 226 230 235 229 235 229 221 221 223 209 213 196 207 210 211 199 198 203 209 215 216 219 224 229 231 230 229 229 235 238 248 243 253 262 270 281 291 307 316 321 336 324 278 261 226 213 206 171 162 146 132
232 231 230 224 223 234 231 229 236 218 215 210 213 209 200 201 211 217 207 199 199 209 211 215 221 227 233 235 236 234 227 232 240 246 242 244 253 259 265 283 289 294 302 308 316 276 254 242 231 218 220 208 196 189
230 230 229 228 222 231 234 231 243 214 199 201 214 202 209 210 214 212 201 201 204 211 218 219 224 230 232 233 236 232 228 232 237 243 240 240 248 254 258 257 264 304 297 279 294 279 261 249 244 240 231 223 219 223
217 218 220 222 224 221 225 227 223 228 202 192 194 196 184 193 211 206 182 199 210 211 218 218 222 229 232 235 235 232 230 231 235 241 234 235 241 250 255 258 272 279 280 278 270 269 260 250 252 247 243 241 236 230
218 219 218 218 222 225 223 222 225 220 199 186 181 182 191 193 201 187 190 193 198 207 211 218 219 223 231 233 232 233 233 235 235 237 230 234 238 247 249 260 270 271 271 272 268 259 261 254 253 250 245 245 245 247
217 218 226 225 225 221 216 218 215 217 205 190 191 184 189 198 194 188 186 194 196 203 211 214 216 219 225 228 227 228 230 233 237 233 229 233 235 243 249 254 266 277 273 263 263 260 259 257 253 254 253 245 245 247
206 209 214 219 215 198 201 211 202 207 200 194 190 188 200 200 200 213 215 204 201 201 202 206 212 216 218 221 225 228 230 236 236 229 231 233 235 243 252 262 268 270 267 265 257 258 252 249 251 255 251 249 243 240
194 199 200 199 184 176 185 199 198 193 195 192 183 188 200 207 213 209 210 204 200 204 204 207 213 217 219 223 227 232 236 239 237 231 233 235 239 248 257 262 265 265 261 261 250 249 244 243 248 251 249 247 244 242
181 181 183 186 178 173 179 184 187 192 195 188 188 190 197 200 205 208 206 202 205 205 208 213 216 213 211 219 232 243 243 242 242 238 239 244 245 252 259 261 260 258 252 256 247 243 238 243 249 249 247 247 247 242
174 175 174 169 171 176 182 183 188 191 187 183 189 194 198 205 203 207 199 205 211 212 206 218 229 230 227 229 227 226 234 239 241 241 241 248 247 244 252 257 257 252 250 251 244 243 243 245 249 248 247 246 243 243
166 168 169 171 171 177 183 186 192 193 192 186 189 196 198 205 204 202 201 208 210 207 212 216 226 227 229 234 231 227 234 241 246 250 239 239 245 248 251 254 250 244 241 237 241 243 245 246 247 248 247 243 242 245
164 167 171 171 173 179 180 187 194 197 195 188 194 202 205 204 209 201 199 201 202 205 213 218 226 229 230 229 229 231 234 239 241 236 228 227 235 242 244 243 241 237 234 234 238 245 248 249 248 247 246 247 248 249
166 171 173 174 176 182 183 187 196 192 191 191 198 200 202 202 206 213 216 215 221 225 223 220 223 229 223 218 218 220 222 220 215 212 216 219 227 237 235 232 232 234 233 237 242 243 245 246 246 246 246 247 251 255
171 173 173 175 177 180 187 190 192 191 189 189 197 202 207 209 217 221 218 222 227 228 223 218 221 221 220 221 220 224 227 225 223 222 224 223 223 226 225 226 231 232 235 243 251 253 254 255 257 258 260 260 262 266
178 178 177 177 179 181 185 191 193 192 194 194 196 201 211 213 217 223 224 223 224 228 230 234 234 234 230 228 227 229 230 230 229 228 231 233 233 233 235 235 236 238 239 240 242 246 248 250 254 259 262 266 269 272
187 184 182 180 180 181 184 190 196 197 193 197 200 207 210 212 215 217 220 218 220 225 227 227 226 223 222 221 224 225 228 232 235 236 236 238 241 243 244 246 247 249 252 254 255 254 253 255 259 262 266 268 270 271
196 192 192 187 184 185 186 189 192 197 201 201 202 205 212 214 214 216 219 223 224 222 225 228 229 228 230 235 239 243 245 246 250 250 251 253 254 255 256 257 257 258 259 259 261 263 264 265 265 266 267 268 270 273
211 207 202 201 198 193 191 192 195 198 201 205 209 209 211 218 221 220 223 227 229 231 232 231 231 233 235 239 244 248 250 251 252 254 256 258 259 260 261 262 263 264 265 266 268 269 271 272 272 272 272 273 274 276
227 223 218 211 208 206 203 200 199 199 202 206 210 213 217 219 222 224 226 224 226 231 235 238 240 241 240 239 241 244 246 247 250 252 254 256 257 259 261 263 263 264 265 265 266 265 266 267 268 269 271 273 275 276
230 235 235 226 219 217 214 213 209 208 208 208 209 212 215 218 222 225 229 233 236 239 241 243 246 248 251 253 254 254 254 253 254 254 256 257 258 259 260 263 264 266 265 263 265 266 267 268 269 271 276 277 279 280
235 236 232 233 228 224 223 222 220 219 217 215 215 216 218 220 222 225 228 231 234 237 239 241 243 246 248 251 254 256 257 258 259 260 259 259 260 261 262 263 264 265 266 267 268 269 271 274 276 279 281 283 283 283
168 184 199 215 219 225 223 224 225 225 225 224 224 224 224 225 225 226 228 231 233 236 238 241 243 244 247 249 252 254 256 258 260 262 263 263 263 264 265 266 267 268 270 272 274 276 277 278 279 280 281 283 284 286
181 202 213 232 246 240 233 231 228 227 227 227 228 229 229 231 233 234 236 237 239 241 243 245 247 249 250 251 253 256 257 258 258 260 262 264 266 267 268 270 271 272 273 274 275 276 277 279 281 282 283 285 286 287
243 243 259 272 275 273 261 238 224 221 220 223 225 226 229 231 233 235 237 239 241 243 245 247 249 251 253 255 256 257 258 259 260 261 263 264 265 267 268 270 271 272 273 274 277 279 280 281 281 280 280 280 281 283
242 248 273 356 128 134 171 234 233 228 222 220 220 221 223 226 229 232 234 237 239 242 243 246 248 250 252 254 255 257 258 259 260 261 262 264 265 266 267 268 269 271 272 273 272 269 267 268 270 274 279 283 286 288
258 265 254 262 253 235 280 251 266 201 210 216 218 220 222 224 227 229 232 236 239 242 245 247 250 252 254 257 259 261 262 264 265 264 263 262 261 261 262 261 258 255 253 253 256 262 262 263 268 274 280 285 290 293
259 260 262 261 258 258 267 261 240 217 197 200 199 207 213 220 225 228 230 234 237 241 244 247 250 252 255 256 257 258 260 258 254 253 250 248 247 244 241 242 246 252 258 263 262 260 262 269 277 281 284 287 289 291
264 264 262 261 260 259 253 249 244 240 228 222 220 216 212 214 215 214 217 222 227 229 231 232 233 234 237 242 244 243 242 245 246 241 237 235 236 239 245 250 252 254 259 261 262 263 269 276 279 282 286 291 294 296
265 263 260 257 255 255 255 255 254 254 252 245 239 237 239 225 210 210 216 220 222 225 228 228 225 225 229 230 228 225 224 224 226 229 232 235 238 243 247 251 253 257 260 262 264 265 268 273 279 287 294 297 297 299